Regional Weather Roundup
Issued by NWS Kansas City/Pleasant Hill, MO

Home | Current Version | Previous Version | Text Only | Print | Product List | Glossary On
Versions: 1 2 3 4 5 6 7 8 9 10 11 12 13 14 15 16 17 18 19 20 21 22 23 24 25 26 27 28 29 30 31 32 33 34 35 36 37 38 39 40 41 42 43 44 45 46 47 48 49 50
000
ASUS43 KEAX 251011
RWREAX

WEATHER ROUNDUP FOR EASTERN KANSAS AND NORTHWEST MISSOURI
NATIONAL WEATHER SERVICE KANSAS CITY/PLEASANT HILL MO
500 AM CDT SAT OCT 25 2014

KSZ040-057-103>105-MOZ028-029-037-043-251100-
...KANSAS CITY METROPOLITAN AREA...

CITY           SKY/WX    TMP DP  RH WIND       PRES   REMARKS
K.C. INTL      FOG       57  57 100 W5        30.02R VSB 1/4
K.C. DOWNTOWN  FOG       57  56  96 SW3       30.01R VSB 1/4
LEES SUMMIT    FOG       58  58 100 SW3       30.02R VSB 3/4
OLATHE - IXD   FOG       57  57 100 SW3       30.03R VSB 1/4
OLATHE - OJC   FOG       57  57 100 CALM      30.01S VSB 1/4
LAWRENCE       FOG       51  50  96 N3        30.03R VSB 1/4

$$

MOZ001>008-011>017-020>025-030>033-038>040-044>046-053-054-251100-
...NORTHERN AND CENTRAL MISSOURI...

CITY           SKY/WX    TMP DP  RH WIND       PRES   REMARKS
ST. JOSEPH     FOG       49  49 100 CALM      30.02S VSB 1/4
MOSBY          FOG       54  54 100 CALM      30.01R VSB 1/4
WHITEMAN AFB   CLEAR     60  58  93 SW7       30.01R
CLINTON        CLEAR     61  61 100 SW3       30.03S FOG
SEDALIA        CLEAR     62  59  90 SW7       30.02R
WARSAW         NOT AVBL
MARSHALL       CLEAR     63  61  94 SW3       30.02R
CHILLICOTHE      N/A     53  52  96 CALM      30.02R
MOBERLY        CLEAR     59  55  88 CALM      30.01R FOG
KIRKSVILLE     FOG       53  53 100 W3        30.00S VSB<1/4

$$

MOZ041-047>049-056>058-063>065-088>090-097-251100-
...EASTERN AND SOUTHERN MISSOURI...

CITY           SKY/WX    TMP DP  RH WIND       PRES   REMARKS
ST. LOUIS INTL PTCLDY    61  57  87 W6        29.99
SPIRIT OF STL  CLEAR     56  55  97 NW5       29.99R
COLUMBIA       CLEAR     58  57  97 SW7       30.01R FOG
JEFFERSON CITY FOG       55  55 100 CALM      30.01S VSB 1/4
MEXICO         CLEAR    N/A N/A N/A W6        29.99S
HANNIBAL       CLEAR     59  57  94 W5        30.00R FOG
ROLLA          PTCLDY    59  57  93 SW9       30.01R
LEBANON        PTCLDY    64  59  82 W10       30.05S
OSAGE BEACH    PTCLDY    61  57  88 W3        30.03R
SPRINGFIELD    CLEAR     63  58  83 SW8       30.05F
BRANSON        CLEAR     63  59  88 W7        30.08S
NEVADA         CLEAR     59  57  94 CALM      30.06R
JOPLIN         CLEAR     63  59  87 SW10      30.06S
WEST PLAINS    CLEAR     58  56  93 W9        30.07R

$$

IAZ060-094-KSZ022-034>040-054-083-096-NEZ052-066-093-251100-
...KANSAS...SOUTHEAST NEBRASKA AND IOWA...

CITY           SKY/WX    TMP DP  RH WIND       PRES   REMARKS
TOPEKA         FOG       54  54 100 CALM      30.02S VSB 1/4
MANHATTAN      FOG       51  51 100 CALM      30.02S VSB 1/4
EMPORIA        FOG       58  58 100 CALM      30.03S VSB 3/4
CHANUTE        CLEAR     57  57 100 S5        30.03S FOG
WICHITA        FOG       56  54  93 CALM      30.03S VSB 1/4
OMAHA          CLEAR     47  45  93 N8        30.04R
LINCOLN        CLEAR     44  42  93 N6        30.05S
FALLS CITY     FOG       49  48  97 NW6       30.02S VSB 1/4
LAMONI           N/A     52  50  93 NW5       30.01S
DES MOINES     CLEAR     52  49  89 NW5       30.00R

$$




USA.gov is the U.S. government's official web portal to all federal, state and local government web resources and services.